Newburgh, NY
on Thursday, December 7, 2017

Thursday
       
Previous Day Next Day
Daily Summary
 ActualAverageRecord
Temperature
Mean Temperature °F °C °F °C  
Max Temperature 42°F 6°C 40°F 4°C 68°F 20°C (1998)
Min Temperature 30°F -1°C 24°F -4°C 6°F -14°C (1976)
Degree Days
Heating Degree Days 29    
Moisture
Dew Point 21°F -6°C   
Average Humidity 56    
Maximum Humidity 75    
Minimum Humidity 34    
Precipitation
Precipitation 0.00 in / 0.00 cm in / cm in / cm ()
Wind
Wind Speed 11 mph / 18 km/h   
Max Wind Speed 14 mph / 23 km/h   
Max Gust Speed 26 mph / 42 km/h   
Visibility 14 miles / 22 kilometers   
Events     
Averages and records for this station are not official NWS values.
Key: T is trace of precipitation, MM is missing value
Source: NWS Daily Summary
Seasonal Weather Averages
Time(EST)TemperatureDew PointHumidity Pressure Visibility Wind DirectionWind SpeedGust SpeedPrecipitationEvents Conditions
12:45 AM 37.4°F 3.0°C 23.0°F -5.0°C 56% 29.95 in / 1014.1 hPa 10.0 miles / 16.1 kilometers WSW 13.8 mph / 22.2 km/h - N/A   Overcast
1:45 AM 37.4°F 3.0°C 23.0°F -5.0°C 56% 29.96 in / 1014.4 hPa 10.0 miles / 16.1 kilometers WSW 13.8 mph / 22.2 km/h - N/A   Overcast
2:45 AM 35.6°F 2.0°C 23.0°F -5.0°C 60% 29.95 in / 1014.1 hPa 10.0 miles / 16.1 kilometers WSW 13.8 mph / 22.2 km/h - N/A   Overcast
3:45 AM 35.6°F 2.0°C 23.0°F -5.0°C 60% 29.95 in / 1014.1 hPa 10.0 miles / 16.1 kilometers WSW 13.8 mph / 22.2 km/h - N/A   Scattered Clouds
4:45 AM 33.8°F 1.0°C 23.0°F -5.0°C 65% 29.95 in / 1014.1 hPa 10.0 miles / 16.1 kilometers WSW 9.2 mph / 14.8 km/h - N/A   Clear
5:45 AM 32.0°F 0.0°C 23.0°F -5.0°C 69% 29.95 in / 1014.1 hPa 10.0 miles / 16.1 kilometers WSW 9.2 mph / 14.8 km/h - N/A   Clear
6:45 AM 30.2°F -1.0°C 23.0°F -5.0°C 75% 29.97 in / 1014.8 hPa 20.0 miles / 32.2 kilometers West 11.5 mph / 18.5 km/h - N/A   Clear
7:45 AM 30.2°F -1.0°C 23.0°F -5.0°C 75% 29.98 in / 1015.1 hPa 20.0 miles / 32.2 kilometers West 5.8 mph / 9.3 km/h - N/A   Clear
8:45 AM 30.2°F -1.0°C 23.0°F -5.0°C 75% 29.99 in / 1015.5 hPa 20.0 miles / 32.2 kilometers West 8.1 mph / 13.0 km/h - N/A   Clear
9:45 AM 37.4°F 3.0°C 23.0°F -5.0°C 56% 29.99 in / 1015.5 hPa 20.0 miles / 32.2 kilometers West 11.5 mph / 18.5 km/h - N/A   Clear
10:45 AM 39.2°F 4.0°C 23.0°F -5.0°C 52% 29.99 in / 1015.5 hPa 20.0 miles / 32.2 kilometers West 13.8 mph / 22.2 km/h - N/A   Clear
11:45 AM 41.0°F 5.0°C 21.2°F -6.0°C 45% 29.96 in / 1014.4 hPa 20.0 miles / 32.2 kilometers West 13.8 mph / 22.2 km/h - N/A   Clear
1:45 PM 42.8°F 6.0°C 15.8°F -9.0°C 34% 29.92 in / 1013.1 hPa 20.0 miles / 32.2 kilometers West 11.5 mph / 18.5 km/h - N/A   Partly Cloudy
2:45 PM 41.0°F 5.0°C 15.8°F -9.0°C 36% 29.92 in / 1013.1 hPa 20.0 miles / 32.2 kilometers West 11.5 mph / 18.5 km/h 26.5 mph / 42.6 km/h N/A   Partly Cloudy
3:45 PM 39.2°F 4.0°C 17.6°F -8.0°C 42% 29.92 in / 1013.1 hPa 20.0 miles / 32.2 kilometers West 11.5 mph / 18.5 km/h 26.5 mph / 42.6 km/h N/A   Partly Cloudy
4:45 PM 37.4°F 3.0°C 15.8°F -9.0°C 41% 29.93 in / 1013.4 hPa 10.0 miles / 16.1 kilometers West 9.2 mph / 14.8 km/h 17.3 mph / 27.8 km/h N/A   Partly Cloudy
5:45 PM 37.4°F 3.0°C 15.8°F -9.0°C 41% 29.93 in / 1013.4 hPa 10.0 miles / 16.1 kilometers West 11.5 mph / 18.5 km/h - N/A   Scattered Clouds
6:45 PM 37.4°F 3.0°C 19.4°F -7.0°C 48% 29.95 in / 1014.1 hPa 10.0 miles / 16.1 kilometers West 11.5 mph / 18.5 km/h - N/A   Overcast
7:45 PM 35.6°F 2.0°C 17.6°F -8.0°C 48% 29.97 in / 1014.8 hPa 10.0 miles / 16.1 kilometers WSW 5.8 mph / 9.3 km/h - N/A   Mostly Cloudy
8:45 PM 35.6°F 2.0°C 19.4°F -7.0°C 52% 29.98 in / 1015.1 hPa 10.0 miles / 16.1 kilometers WSW 11.5 mph / 18.5 km/h - N/A   Mostly Cloudy
9:45 PM 33.8°F 1.0°C 23.0°F -5.0°C 65% 30.00 in / 1015.8 hPa 10.0 miles / 16.1 kilometers West 4.6 mph / 7.4 km/h - N/A   Scattered Clouds
10:45 PM 33.8°F 1.0°C 24.8°F -4.0°C 70% 30.00 in / 1015.8 hPa 10.0 miles / 16.1 kilometers WSW 4.6 mph / 7.4 km/h - N/A   Partly Cloudy
11:45 PM 33.8°F 1.0°C 24.8°F -4.0°C 70% 30.00 in / 1015.8 hPa 10.0 miles / 16.1 kilometers WSW 8.1 mph / 13.0 km/h - N/A   Partly Cloudy